Location: Holiday Acres Laynes 2 Mobile Home Park
(26.7249°N, 81.8671°W)
Time: 13:16:00
(UTC+00:00)

Cosmos 405 Rocket - Visible Passes

Search period start: 12 April 2021 00:00
Search period end: 22 April 2021 00:00
Orbit: 490 x 552 km, 81.3° (Epoch: 11 April)

Date Brightness Start Highest point End Pass type
(mag) Time Alt. Az. Time Alt. Az. Time Alt. Az.
18 Apr 5.5 02:10:27 10° N 02:10:46 12° N 02:10:46 12° N visible
19 Apr 5.2 01:57:09 10° N 01:57:58 15° NNE 01:57:58 15° NNE visible
20 Apr 4.8 01:43:53 10° NNE 01:45:11 19° NNE 01:45:11 19° NNE visible
21 Apr 4.4 01:30:39 10° NNE 01:32:26 22° NE 01:32:26 22° NE visible
